Weather History for Waukegan, IL

Change the Weather History Date:

Tuesday, October 2, 2012

  Actual Average Record
Temperature  
Mean Temperature 59 °F -  
Max Temperature 67 °F 65 °F 79 °F (2001)
Min Temperature 50 °F 46 °F 28 °F (2003)
Degree Days  
Heating Degree Days 6 10  
Month to date heating degree days 18 20  
Since 1 July heating degree days 198 186  
Cooling Degree Days 0 1  
Month to date cooling degree days 0 2  
Year to date cooling degree days 981 559  
Growing Degree Days 8 (Base 50)    
Moisture  
Dew Point 51 °F    
Average Humidity 72    
Maximum Humidity 96    
Minimum Humidity 48    
Precipitation  
Precipitation 0.01 in 0.15 in 1.45 in (2006)
Month to date precipitation 0.01 0.29  
Year to date precipitation 19.89 28.20  
Sea Level Pressure  
Sea Level Pressure 29.87 in    
Wind  
Wind Speed 6 mph (North)    
Max Wind Speed 14 mph    
Max Gust Speed 20 mph    
Visibility 10 miles    
Events      
T = Trace of Precipitation, MM = Missing Value Source: NWS Daily Summary

Daily Weather History Graph

Daily Weather History Graph

Search for Another Location

Airport:

Trip Planner

Search our weather history database for the weather conditions in past years. The results will help you decide how hot, cold, wet, or windy it might be!

Date:

Astronomy

Oct. 02, 2012 Rise Set
Actual Time 6:50 AM CDT 6:30 PM CDT
Civil Twilight 6:22 AM CDT 6:58 PM CDT
Nautical Twilight 5:49 AM CDT 7:30 PM CDT
Astronomical Twilight 5:16 AM CDT 8:03 PM CDT
Moon 7:38 PM CDT (10/2) 9:21 AM CDT (10/2)
Length of Visible Light 12h 36m
Length of Day
11h 40m
Waning Gibbous, 94% of the Moon is Illuminated
Oct 2
Waning Gibbous
Oct 8
Last Quarter
Oct 15
New
Oct 21
First Quarter
Oct 29
Full

Hourly Weather History & Observations

Time (CDT) Temp. Dew Point Humidity Pressure Visibility Wind Dir Wind Speed Gust Speed Precip Events Conditions
12:52 AM 52.0 °F 48.9 °F 89% 29.82 in 10.0 mi NNW 3.5 mph - N/A   Clear
1:52 AM 53.1 °F 48.9 °F 86% 29.82 in 10.0 mi Calm Calm - N/A   Clear
2:52 AM 53.1 °F 50.0 °F 89% 29.82 in 10.0 mi NNW 3.5 mph - N/A   Clear
3:52 AM 51.1 °F 48.9 °F 92% 29.83 in 9.0 mi NNW 3.5 mph - N/A   Clear
4:52 AM 53.1 °F 50.0 °F 89% 29.84 in 10.0 mi NNW 4.6 mph - N/A   Clear
5:52 AM 52.0 °F 50.0 °F 93% 29.85 in 6.0 mi NNW 3.5 mph - N/A   Clear
6:52 AM 52.0 °F 50.0 °F 93% 29.86 in 5.0 mi Calm Calm - N/A   Clear
8:52 AM 61.0 °F 54.0 °F 78% 29.89 in 10.0 mi NNW 5.8 mph - N/A   Partly Cloudy
9:52 AM 62.1 °F 53.1 °F 72% 29.89 in 10.0 mi NNE 9.2 mph 19.6 mph 0.01 in   Scattered Clouds
10:52 AM 64.0 °F 50.0 °F 60% 29.89 in 10.0 mi NNE 6.9 mph 16.1 mph N/A   Partly Cloudy
11:52 AM 64.9 °F 48.9 °F 56% 29.89 in 10.0 mi NNE 9.2 mph 17.3 mph N/A   Clear
12:52 PM 66.0 °F 46.9 °F 50% 29.88 in 10.0 mi North 11.5 mph 17.3 mph N/A   Clear
1:52 PM 66.0 °F 46.0 °F 48% 29.87 in 10.0 mi NNE 9.2 mph 17.3 mph N/A   Clear
2:52 PM 64.9 °F 48.9 °F 56% 29.86 in 10.0 mi NNE 11.5 mph 18.4 mph N/A   Clear
3:52 PM 64.9 °F 51.1 °F 61% 29.86 in 10.0 mi NNE 8.1 mph - N/A   Clear
4:52 PM 63.0 °F 52.0 °F 67% 29.86 in 10.0 mi NNE 13.8 mph 17.3 mph N/A   Clear
5:52 PM 60.1 °F 52.0 °F 75% 29.86 in 10.0 mi North 5.8 mph - N/A   Clear
6:52 PM 57.0 °F 52.0 °F 83% 29.87 in 10.0 mi North 3.5 mph - N/A   Clear
7:52 PM 54.0 °F 51.1 °F 90% 29.89 in 10.0 mi North 3.5 mph - N/A   Clear
9:52 PM 59.0 °F 55.9 °F 90% 29.91 in 10.0 mi NNE 6.9 mph - N/A   Overcast
10:52 PM 60.1 °F 55.9 °F 86% 29.91 in 10.0 mi NNE 8.1 mph - N/A   Overcast
11:52 PM 60.1 °F 55.9 °F 86% 29.90 in 10.0 mi Variable 5.8 mph - N/A   Overcast